Location: Unspecified
(0.0000°N, 0.0000°E)
Time: 07:08:12
(UTC+01:00)

SWIFT - Visible Passes

Search period start: 22 February 2017 00:00
Search period end: 04 March 2017 00:00
Orbit: 548 x 564 km, 20.6° (Epoch: 21 February)

Date Brightness Start Highest point End Pass type
(mag) Time Alt. Az. Time Alt. Az. Time Alt. Az.
22 Feb 2.7 05:31:19 60° ENE 05:31:19 60° ENE 05:34:51 10° ENE visible
23 Feb 3.5 05:26:56 36° NE 05:26:56 36° NE 05:29:39 10° ENE visible
24 Feb 4.2 05:22:29 23° NE 05:22:29 23° NE 05:24:21 10° NE visible
25 Feb 4.8 05:17:58 15° NNE 05:17:58 15° NNE 05:18:57 10° NE visible
26 Feb 5.2 05:13:23 10° NNE 05:13:23 10° NNE 05:13:26 10° NNE visible
